RH
21 20 29 39 44 44 38 37 38 40 54 54 56 51 54 58 55 66 70 58 49 32 23 9 9 6 5 6 8 9 10 11 12 13 18 27 36 52 52 38 31 36 27 16 17
15 14 17 29 41 45 45 40 36 37 37 35 35 37 49 44 44 52 62 65 50 42 48 40 36 21 7 5 5 7 9 9 10 12 12 24 36 36 40 42 34 28 32 23 18
13 11 10 16 23 26 34 37 36 33 30 26 28 30 30 34 28 30 38 49 58 50 34 43 53 49 31 11 7 6 6 7 8 10 11 13 23 22 22 29 33 30 28 25 16
14 9 8 9 13 15 14 12 14 15 12 10 9 11 10 13 12 16 17 18 26 32 45 44 41 38 45 36 17 10 8 7 8 7 9 10 12 13 17 26 34 33 25 24 20
14 13 9 7 7 8 8 8 8 7 7 6 6 6 6 6 7 9 9 7 11 17 18 20 40 41 46 43 36 28 20 25 19 18 8 8 9 10 14 18 30 29 26 27 23
14 12 11 10 8 7 7 6 6 6 6 6 6 6 6 6 6 5 5 5 5 5 6 6 7 11 25 27 29 42 41 44 41 43 35 8 7 10 8 10 14 16 27 25 24
14 13 11 10 9 9 8 7 7 6 6 6 5 5 6 6 6 7 7 8 7 7 7 7 7 6 6 7 8 12 22 28 36 36 34 31 10 8 9 9 8 11 13 24 32
8 7 7 7 7 6 6 5 4 4 3 3 2 2 3 3 2 2 2 2 2 2 2 2 2 3 5 6 7 7 7 6 6 8 13 24 30 25 16 10 10 8 14 12 14
6 5 5 4 4 3 3 3 2 2 2 2 2 2 2 2 2 2 1 1 2 2 1 1 1 1 1 1 1 1 2 3 4 5 7 6 10 22 31 33 13 9 9 14 12
6 6 5 5 4 4 4 4 4 3 3 3 3 3 2 2 2 2 2 2 2 2 2 2 2 1 1 1 1 1 1 1 1 1 1 2 6 7 8 31 41 28 22 12 9
8 7 7 6 6 6 5 5 5 5 4 4 4 3 2 2 2 2 2 2 2 3 2 2 2 2 2 2 2 2 2 2 2 1 1 1 1 1 4 6 36 48 49 44 20
8 8 8 8 7 7 6 6 6 5 5 4 4 4 4 3 3 3 3 3 3 3 3 3 2 3 3 2 2 2 2 2 2 2 1 1 1 1 1 1 4 18 38 51 50
10 10 10 10 9 9 8 7 7 6 6 5 5 4 4 4 4 4 4 4 4 4 4 4 4 4 3 3 3 2 2 2 2 1 1 1 1 1 1 1 1 1 5 12 53
13 13 12 11 10 10 8 7 6 6 6 6 6 6 6 5 5 6 5 6 6 5 5 5 4 4 4 3 2 2 2 2 1 1 1 1 1 1 1 1 1 1 1 2 7
13 11 9 8 8 8 7 7 7 6 5 5 5 5 5 5 5 6 7 7 6 6 6 5 4 4 3 2 2 2 2 2 2 2 1 1 1 1 1 1 1 1 1 1 2
11 10 10 10 10 10 10 11 10 9 8 8 8 8 7 6 6 6 8 8 7 7 6 5 4 3 3 3 2 2 2 2 2 2 1 1 1 2 2 2 1 1 2 2 1
12 12 12 12 12 13 14 14 14 11 10 10 9 9 8 8 8 9 9 8 7 6 6 5 4 3 4 4 3 3 3 3 3 2 6 9 20 26 39 28 9 6 4 4 4
15 14 15 15 14 15 16 16 17 14 12 11 10 9 9 8 8 8 8 7 8 8 6 5 4 4 4 4 4 4 4 4 4 4 5 25 57 63 92 79 75 31 31 22 7
19 18 18 19 19 18 17 16 18 18 16 15 13 11 11 10 9 8 8 9 8 8 7 6 6 5 5 4 5 5 5 5 5 5 7 22 54 60 89 86 96 77 75 51 22
23 23 21 21 22 22 20 18 18 20 20 18 16 14 13 12 11 10 9 10 10 9 8 8 7 6 6 5 6 6 6 6 7 6 7 31 40 63 84 99 99 100 100 100 98
25 24 23 22 22 21 21 19 20 23 23 22 20 19 16 13 13 13 12 12 10 10 10 9 8 8 8 7 7 7 6 7 8 8 9 9 23 49 66 63 77 83 93 96 100
26 25 29 26 23 23 23 22 26 25 23 23 22 22 21 19 19 19 16 13 13 12 12 11 11 11 11 10 10 9 8 9 10 11 11 10 10 19 39 49 55 47 59 83 99
32 29 34 29 24 25 27 25 26 22 21 22 26 26 23 22 22 21 21 19 17 15 14 13 13 13 13 11 12 11 9 10 9 12 14 12 14 14 16 29 36 44 47 59 70
37 38 33 31 27 28 31 30 27 20 18 18 25 24 21 21 24 25 25 23 23 23 19 16 16 16 15 14 14 13 12 11 11 12 12 17 10 16 15 14 20 37 46 47 52
40 40 37 30 26 31 31 31 28 20 17 13 15 22 19 18 22 22 20 18 15 16 23 25 22 19 17 17 16 16 15 14 13 14 14 16 16 12 13 15 19 16 18 40 41
44 41 40 33 29 28 24 25 25 20 16 13 12 10 12 14 16 18 16 16 19 22 24 20 26 25 20 19 17 18 17 16 15 16 16 17 18 16 13 11 13 16 20 16 15
48 43 41 34 30 28 26 25 22 22 15 13 12 10 10 10 10 11 12 16 22 26 29 30 18 26 25 21 19 18 20 17 14 13 15 16 19 18 16 13 14 14 15 16 18
Wind_Speed
44 43 41 38 38 36 34 32 30 31 31 31 30 26 24 22 23 27 34 30 34 31 33 35 32 34 35 35 35 34 32 27 25 24 26 30 30 30 28 24 20 19 21 11 6
41 42 40 38 37 35 33 33 32 30 30 29 27 27 28 24 26 26 27 31 28 29 30 34 35 34 37 37 36 38 35 31 31 31 29 32 33 34 33 30 27 25 23 20 10
37 37 38 37 36 34 33 33 32 31 31 30 30 28 29 28 27 27 27 27 29 30 30 28 31 34 39 39 41 37 39 37 34 34 33 32 37 35 35 33 32 30 27 24 19
34 32 33 35 36 35 33 32 32 31 30 30 30 30 30 30 30 28 27 27 29 28 28 30 31 29 30 41 40 39 40 39 37 37 38 37 38 37 36 33 34 35 33 29 26
30 30 30 31 32 32 33 33 32 31 31 30 31 32 31 33 33 32 30 29 31 31 32 31 32 31 31 31 37 39 39 37 38 37 42 43 40 43 37 37 40 37 36 35 34
28 27 27 28 29 30 31 32 32 31 31 32 32 32 32 33 31 32 33 32 33 31 33 33 33 34 35 35 36 38 40 41 43 39 43 47 44 45 40 43 45 43 39 38 38
25 27 27 27 28 28 29 29 29 29 29 30 30 31 34 34 32 32 33 34 36 35 37 38 37 36 37 39 39 40 42 43 44 45 44 44 45 49 49 47 46 49 46 44 42
21 22 23 25 27 27 27 26 26 25 25 26 26 27 29 30 29 29 29 29 32 33 32 34 35 36 40 42 43 44 45 45 46 45 47 44 49 50 52 53 49 48 51 49 48
18 20 21 22 23 23 23 22 23 22 23 23 23 24 25 26 26 26 28 28 28 28 29 32 31 32 35 36 39 41 46 47 47 50 51 51 46 47 53 55 56 54 51 55 53
17 19 20 20 21 21 21 22 22 21 20 20 20 21 20 20 22 21 21 22 22 24 24 25 26 29 30 31 34 36 38 42 45 44 49 52 53 52 54 58 59 57 57 56 56
18 18 19 19 19 20 19 19 19 19 19 20 19 19 18 18 18 18 18 19 20 21 23 24 26 28 30 32 35 37 39 41 44 47 48 49 54 55 58 58 60 65 64 63 60
17 18 18 18 18 19 18 19 19 20 22 22 21 22 21 21 21 22 22 24 25 26 26 27 27 29 30 32 34 37 38 42 44 47 52 52 53 55 55 58 64 65 65 69 69
19 19 19 19 19 18 19 18 19 20 21 22 22 23 23 23 23 24 26 25 25 24 24 24 26 27 30 32 35 39 40 43 47 50 53 58 55 57 58 60 60 67 71 70 74
21 21 20 20 20 20 20 19 19 20 20 21 22 23 23 23 22 22 23 23 24 24 24 25 27 29 31 34 35 36 39 43 46 48 54 59 61 60 63 65 66 67 72 77 77
23 22 21 21 19 19 18 18 17 18 19 21 19 20 22 23 22 23 24 24 25 25 26 27 29 29 30 31 32 34 36 38 40 42 44 50 59 64 70 70 72 74 75 75 80
23 22 21 18 17 17 16 16 15 14 13 12 12 13 15 17 17 18 20 21 23 24 25 26 26 26 25 26 27 29 32 33 36 39 41 41 47 50 61 65 70 72 74 74 79
25 23 22 20 18 18 17 15 14 14 13 12 12 11 12 13 12 14 17 20 21 21 21 22 23 22 21 21 26 30 31 32 35 38 34 29 28 35 27 27 40 47 58 66 71
28 26 23 21 20 20 19 17 15 14 12 11 10 10 11 11 11 10 12 15 14 14 18 20 21 22 21 19 24 28 30 33 36 39 32 19 20 18 19 22 23 27 33 36 48
31 28 26 24 23 22 21 19 17 16 14 12 10 9 9 8 7 5 8 9 10 10 13 19 21 21 20 20 24 29 31 31 33 34 30 18 21 20 20 18 19 29 24 26 35
34 31 30 28 26 25 23 21 19 18 16 15 14 12 9 6 5 5 7 7 9 10 12 16 20 20 21 22 25 27 30 32 32 32 28 21 21 20 22 28 24 24 19 28 29
37 34 33 32 31 29 25 23 22 19 18 16 16 15 13 10 7 6 6 8 8 10 13 15 19 19 20 22 26 28 30 30 31 31 29 29 27 23 23 26 27 33 29 26 31
40 37 35 35 33 30 27 25 23 20 17 15 15 14 13 12 11 11 10 9 9 10 13 15 19 20 21 22 24 27 28 29 29 29 28 29 25 29 33 31 31 29 35 37 38
43 40 39 36 33 30 28 27 26 22 19 16 14 11 9 9 10 10 11 12 11 10 12 15 18 20 21 23 23 26 29 30 29 27 22 26 23 24 30 34 40 38 36 43 41
47 45 42 38 33 31 30 29 28 26 23 19 16 15 13 11 11 11 12 13 14 14 14 15 18 21 23 23 25 27 29 31 31 31 30 25 27 27 28 27 33 37 39 43 46
51 48 44 41 36 34 33 31 30 28 26 24 21 20 17 15 14 15 16 17 18 18 18 19 21 21 24 25 26 25 25 29 32 33 31 27 29 29 29 28 29 29 33 42 46
55 51 47 43 40 39 37 35 32 31 29 27 25 24 22 20 18 18 18 18 19 22 24 25 23 25 25 26 26 26 24 27 29 30 30 29 27 28 28 29 27 27 30 33 37
58 54 50 48 44 41 36 35 35 34 32 31 28 25 24 22 22 22 21 20 20 22 26 29 27 26 26 27 26 27 26 28 30 32 32 30 28 28 30 33 30 31 32 33 36
Wind_Direction
221 224 225 226 229 231 229 233 232 232 232 233 233 228 233 231 237 231 225 230 239 238 240 235 239 245 244 241 241 240 239 236 234 233 228 237 245 254 260 260 258 266 282 297 266
219 221 223 225 228 231 231 231 233 232 231 232 234 231 237 233 235 235 227 233 227 234 243 242 237 244 247 245 241 244 241 237 236 232 233 231 241 252 257 262 267 274 276 290 282
217 219 222 223 226 231 230 231 232 233 234 233 234 235 237 239 238 236 235 235 229 234 233 241 238 241 246 245 245 241 241 240 238 239 237 232 237 246 255 258 262 269 271 274 279
215 215 219 222 225 228 228 229 230 232 235 235 235 236 236 241 244 240 239 235 234 233 236 238 240 241 247 244 244 245 244 239 240 239 238 236 236 239 245 251 251 257 265 272 273
213 216 218 222 225 227 228 229 231 233 236 240 241 241 242 240 243 242 240 240 238 236 239 237 236 238 240 244 245 244 245 249 247 244 240 237 237 243 238 241 248 249 256 261 266
211 215 219 223 227 231 233 232 233 237 238 240 243 245 245 244 243 243 244 242 242 240 244 243 241 244 242 246 245 242 245 246 246 248 245 241 236 239 243 238 242 248 245 251 257
211 217 221 225 229 232 235 237 239 241 242 243 247 246 244 245 245 245 247 249 252 247 247 249 248 246 246 247 247 246 245 245 245 245 249 246 241 238 242 245 243 248 244 239 244
202 206 214 223 229 232 234 236 236 234 237 237 237 242 246 245 247 250 252 252 253 255 255 252 253 255 254 253 252 251 251 251 253 249 248 244 241 242 244 245 246 243 244 244 245
199 202 205 207 210 213 217 218 222 221 222 226 231 236 241 245 246 248 249 251 254 258 258 256 255 257 256 258 258 257 256 255 253 254 251 251 243 240 245 245 246 247 245 244 244
198 200 204 203 204 205 207 209 212 217 219 224 230 236 239 244 246 245 246 245 245 249 253 256 258 260 260 262 264 264 265 264 264 258 258 251 251 245 243 243 241 243 249 249 244
200 203 205 204 205 204 206 211 216 220 224 226 229 234 231 232 235 236 235 236 238 241 248 253 258 261 264 266 268 269 269 268 268 268 265 260 256 251 248 244 242 242 245 248 248
210 209 210 211 211 213 212 216 220 224 226 229 232 238 239 238 239 240 242 248 254 258 261 265 268 271 273 275 279 280 281 280 277 275 270 261 258 259 254 249 245 241 242 243 244
213 212 213 214 214 214 216 218 221 225 227 229 231 237 242 245 247 249 251 251 254 258 262 265 271 276 280 281 282 284 284 283 282 278 275 270 261 257 257 254 248 245 241 240 241
218 215 213 212 211 213 216 220 224 226 228 231 234 237 240 241 244 245 250 256 259 264 268 272 274 276 279 282 283 283 286 289 289 287 282 275 268 263 258 254 250 244 241 239 238
219 217 212 210 209 209 212 212 216 223 228 232 234 237 242 244 245 252 257 261 264 266 269 270 273 274 277 279 283 291 294 296 301 300 292 281 272 264 260 252 249 246 242 240 238
217 214 210 204 204 206 207 209 211 220 222 229 234 240 247 249 253 253 252 253 256 258 261 264 265 270 276 287 295 294 300 311 314 312 307 293 274 262 258 256 251 247 242 240 238
216 213 210 209 209 211 211 213 219 224 224 230 233 238 243 251 251 244 243 244 250 258 258 260 266 275 287 310 308 312 320 323 323 329 331 311 284 276 281 279 263 255 251 241 239
216 215 213 214 216 217 217 218 224 226 229 231 241 242 242 242 236 238 246 257 259 263 273 278 283 291 303 316 316 319 326 333 334 336 336 304 289 292 290 294 294 278 259 248 242
216 214 215 214 216 220 224 226 228 232 233 237 246 253 251 252 253 257 256 262 268 269 277 286 293 299 311 315 322 327 330 333 335 337 332 309 279 301 288 276 267 285 291 284 260
220 220 219 220 221 223 227 231 230 233 237 241 247 255 261 273 282 284 286 300 295 285 283 285 291 300 313 317 321 326 329 333 334 335 336 298 271 287 284 282 266 260 269 277 264
223 225 225 224 224 227 230 229 227 230 236 242 246 251 257 270 287 305 309 306 313 305 300 297 297 301 308 314 318 322 327 331 331 335 329 329 288 278 274 276 282 282 272 278 246
225 227 227 227 227 227 229 228 226 225 229 236 243 251 260 274 287 294 299 312 314 311 309 305 300 304 306 310 315 318 323 328 329 332 332 324 330 292 278 285 291 285 277 286 272
225 225 226 225 226 226 224 225 223 224 227 232 234 236 253 272 290 304 307 304 307 314 306 305 301 303 301 306 313 316 322 323 325 327 329 330 321 306 296 285 286 286 284 289 292
224 223 224 223 223 225 225 225 225 228 229 229 234 242 249 263 287 303 310 312 308 304 307 310 309 306 306 309 309 316 320 320 322 323 329 327 328 314 311 304 288 282 277 280 289
222 223 223 225 226 226 227 228 232 234 232 232 234 240 247 258 276 290 301 308 312 318 318 309 306 306 307 306 307 309 313 315 317 318 323 324 323 324 317 311 304 299 286 277 280
221 223 224 227 227 229 228 230 235 239 238 237 237 239 246 254 264 276 288 299 307 311 315 313 305 302 305 306 304 305 306 309 310 311 316 322 322 320 316 316 312 303 292 287 283
222 223 223 225 227 229 231 234 237 239 240 241 241 244 248 254 261 271 279 285 294 304 312 309 302 298 298 302 304 302 304 304 308 314 318 323 324 318 316 319 319 310 304 297 291